www.pogodaiklimat.ru

ПОГОДА в Клинтоне, MO

  • Прогноз погоды в Клинтоне
  • Монитор погоды в Клинтоне
  • Климат в Клинтоне

АРХИВ ПОГОДЫ в Клинтоне

Время (UTC), дата Ветер
(напр.,м/с)
 
Видим.   Явления Облачность Т
(С)
Тd
(С)
f
(%)
Тe
(С)
Тes
(С)
Комфортность

P
(гПа)

Po
(гПа)
Тmin
(С)
Tmax
(С)
R
(мм)
SD
(см)
14:35 22.05 ЮЗ  6
{9} 
16 км    10/10 1020 м  +22.0  +14.0  60  +25  +25  комфорт    979.3         
14:55 22.05 ЮЗ  6
{9} 
16 км    10/10 1020 м  +22.0  +14.0  60  +25  +25  комфорт    979.3         
15:15 22.05 ЮЗ  6
{9} 
16 км    10/10 900 м  +22.0  +14.0  60  +25  +25  комфорт    979.7         
15:35 22.05 ЮЗ  5
{8} 
16 км    10/10 900 м  +22.0  +14.0  60  +25  +25  комфорт    979.7         
15:55 22.05 ЮЗ  5
{8} 
16 км    10/10 900 м  +22.0  +15.0  64  +25  +25  комфорт    979.7         
16:15 22.05 ЮЗ  4
{8} 
14 км    10/10 780 м  +22.0  +16.0  69  +26  +26  душно    979.7         
16:35 22.05 ЮЗ  14 км    10/10 780 м  +22.0  +17.0  73  +26  +26  душно    979.7         
16:55 22.05 ЮЗ  14 км    10/10 780 м  +23.0  +17.0  69  +28  +28  душно    979.7         
17:15 22.05 ЮЗ  13 км    10/10 780 м  +23.0  +18.0  73  +28  +28  душно    979.3         
17:35 22.05 ЮЗ  13 км    10/10 750 м  +23.0  +18.0  73  +28  +28  душно    979.3         
17:55 22.05 ЮЗ  11 км    10/10 1050 м  +24.0  +19.0  74  +29  +29  душно    979.3         
18:55 22.05 З  5
{7} 
13 км    ясно  +25.0  +20.0  74  +31  +38  очень
душно 
  979.3         
19:15 22.05 З  11 км    ясно  +25.0  +20.0  74  +31  +34  очень
душно 
  979.3         
19:35 22.05 З  11 км    ясно  +25.0  +20.0  74  +31  +41  очень
душно 
  979.3         
19:55 22.05 З  11 км    2/2 1440 м  +26.0  +21.0  74  +33  +42  очень
душно 
  979.3         
20:15 22.05 З  11 км    2/2 1440 м
[средняя] 
+27.0  +21.0  70  +34  +40  очень
душно 
  979.3         
20:35 22.05 З  11 км    2/2 1800 м  +27.0  +21.0  70  +34  +43  очень
душно 
  979.0         
20:55 22.05 ЮЗ  13 км    5/5 1800 м  +27.0  +21.0  70  +34  +41  очень
душно 
  979.3         
21:15 22.05   11 км    2/2 1500 м  +27.0  +21.0  70  +34  +44  очень
душно 
  979.0         
21:35 22.05 Ю  13 км    2/2 1500 м  +27.0  +22.0  74  +35  +43  очень
душно 
  979.3         
21:55 22.05 Ю  13 км    2/0 2400 м
[средняя] 
+27.0  +22.0  74  +35  +42  очень
душно 
  979.3         
22:15 22.05 Ю  13 км    ясно  +27.0  +22.0  74  +35  +39  очень
душно 
  979.0         
22:35 22.05   11 км    ясно  +27.0  +23.0  79  +36  +42  очень
душно 
  978.7         
22:55 22.05   11 км    5/5 1800 м
[средняя] 
+26.0  +23.0  84  +35  +38  очень
душно 
  978.4         
23:55 22.05 ЮЗ  6 км  гроза, слабый дождь  8/5 90 м
[средняя] 
+22.0  +19.0  83  +27  +28  душно    979.0         
00:15 23.05 СЗ  18
{24} 
800 м  гроза с сильным дождем  10/10 90 м  +20.0  +18.0  88  +21  +21  комфорт             
00:35 23.05 З  7
{13} 
800 м  гроза с сильным дождем  10/10 60 м  +20.0  +19.0  94  +23  +23  комфорт    981.6         
01:55 23.05 С  13 км    8/8 1110 м
[средняя] 
+19.0  +19.0  100  +21  +21  комфорт             
03:15 23.05   8 км  гроза со слабым дождем  10/10 60 м  +19.0  +19.0  100  +21  +21  комфорт             
03:35 23.05   10 км  гроза, дымка  10/5 930 м
[средняя] 
+19.0  +19.0  100  +21  +21  комфорт             
04:15 23.05 С  6 км  слабый дождь  10/10 630 м  +19.0  +19.0  100  +21  +21  комфорт             
04:35 23.05 С  11 км  гроза  10/8 720 м
[средняя] 
+19.0  +19.0  100  +21  +21  комфорт             
04:55 23.05 С  11 км    10/8 1230 м
[средняя] 
+18.0  +18.0  100  +18  +18      984.6         
05:15 23.05 СВ  16 км    10/5 1230 м
[средняя] 
+18.0  +18.0  100  +18  +18      984.9         
05:35 23.05 СВ  16 км    10/8 1950 м
[средняя] 
+18.0  +18.0  100  +18  +18      985.3         
05:55 23.05 В  16 км    10/10 1650 м  +17.0  +17.0  100  +17  +17      985.3         
06:15 23.05 В  14 км    10/10 1470 м  +17.0  +17.0  100  +17  +17      984.6         
06:35 23.05 СВ  16 км    10/10 1800 м  +17.0  +17.0  100  +17  +17      985.3         
06:55 23.05   13 км    10/10 1800 м  +17.0  +17.0  100  +17  +17      985.3         
07:15 23.05 СВ  14 км    10/8 1320 м
[средняя] 
+17.0  +17.0  100  +17  +17      984.9         
07:35 23.05   13 км    8/2 1260 м
[средняя] 
+17.0  +17.0  100  +17  +17      984.9         
07:55 23.05   13 км    2/2 1320 м  +17.0  +17.0  100  +17  +17      985.6         
08:35 23.05   11 км    8/8 1170 м  +17.0  +17.0  100  +17  +17      985.6         
08:55 23.05 В  11 км    8/8 1140 м  +17.0  +17.0  100  +17  +17      985.9         
09:15 23.05   14 км    8/8 1140 м
[средняя] 
+17.0  +17.0  100  +17  +17      985.9         
09:35 23.05 С  14 км    8/5 1140 м
[средняя] 
+17.0  +17.0  100  +17  +17      985.9         
09:55 23.05   14 км    8/2 1140 м
[средняя] 
+16.0  +16.0  100  +16  +16      985.9         
10:15 23.05   11 км    8/0 3300 м
[средняя] 
+17.0  +17.0  100  +17  +17      986.6         

 

Местоположение метеостанции Clinton Memopial Airport: широта 38.3566 долгота -93.6842 высота над уровнем моря 251 м.

В архиве по умолчанию представлена погода в Клинтоне за последние 1-2 суток. Обновление информации о фактической погоде в базе происходит ежечасно! Архивные данные за месяц целиком и за предыдущие месяцы Вы можете получить, выбрав интересующий диапазон дат из раскрывающегося списка и нажав кнопку "Ввод!".

Внимание! Архив погоды МЕТАР в базе сайта хранится не более 60 дней. Нет смысла пытаться выбрать более раннюю дату.

Внимание! Время в таблицах - всемирное. Для получения местного времени необходимо прибавить поправку, которая в Клинтоне равна -6 ч.

Ветер - указаны скорость ветра в м/с и направление, откуда дует ветер: С - северный, СВ - северо-восточный, В - восточный, ЮВ - юго-восточный, Ю - южный, ЮЗ - юго-западный, З - западный, СЗ - северо-западный.
Видимость - горизонтальная дальность видимости в метрах или километрах. При видимости от 1 до 10 км при отсутствии осадков обычно наблюдается дымка, при ухудшении видимости до 1 км и менее - туман. В сухую погоду видимость может ухудшаться дымом, пылью или мглою.
Атмосферные явления - указаны явления, наблюдавшиеся в указанный момент времени.
Облачность - указаны через наклонную черту верхняя и нижняя облачность в баллах и высота нижней границы облаков в метрах. Внимание: облачность, как и прочие метеорологические величины в США измеряются автоматическими метеостанциями. Указанные значения в баллах носят условный характер и показывают процент времени, в течение которого, в среднем, лазерный луч высотомера отражался от облаков обратно.
T - Температура воздуха - температура, измеренная на высоте 2 м над землей.
Td - Температура точки росы - температура, при понижении до которой содержащийся в воздухе водяной пар достигнет насыщения.
f - Относительная влажность воздуха - влажноcть воздуха, измеренная на высоте 2 м над землей.
Te - Эффективная температура - температура, которую ощущает одетый по сезону человек в тени. Характеристика душности погоды. При расчете учитывается влияние влажности воздуха и скорости ветра на теплоощущения человека.
Tes - Эффективная температура на солнце - температура, которую ощущает человек, с поправкой на солнечный нагрев. Характеристика знойности погоды. Зависит от высоты солнца над горизонтом, облачности и скорости ветра. Ночью, в пасмурную погоду, а также при ветре 12 м/с и более поправка равна нулю.
P - Атмосферное давление - приведенное к уровню моря атмосферное давление.
Po - Атмосферное давление - измеренное на уровне метеостанции атмосферное давление.
Tmin - Минимальная температура - минимум температуры воздуха на высоте 2 м над землей.
Tmax - Максимальная температура - максимум температуры воздуха на высоте 2 м над землей.
R - Количество осадков - Количество выпавших осадков за 3 или 6 часов, мм.
SD - Снежный покров - Высота снежного покрова, см.